E-STAR
1 38079U 12006C   12299.62917361  .00043967  00000-0  10653-2 0  5963
2 38079 069.4828 015.6097 0697809 082.0239 285.9446 14.24884213 36090
GOLIAT
1 38085U 12006J   12299.64953393  .00043361  00000-0  10432-2 0  5623
2 38085 069.4832 016.3335 0704347 082.4519 285.5947 14.23644034 36070
HORYU-2
1 38340U 12025D   12299.77878823  .00002623  00000-0  44213-3 0  2084
2 38340 098.1866 239.8910 0011802 279.2484 080.7387 14.70321274 23669
RS-40
1 38736U 12041D   12299.57642088  .00000010  00000-0  00000 0 0   898
2 38736 082.4755 301.4110 0019881 117.5622 242.7483 12.42647005 11105
PROITERES
1 38756U 12047B   12299.72731812  .00001064  00000-0  17002-3 0  1678
2 38756 098.2804 006.1931 0013542 129.1357 231.1052 14.73937216  6851
AENEAS
1 38760U 0        12298.31629831  .00010038  00000-0  90952-3 0 00473
2 38760 064.6718 276.8338 0218398 278.1463 079.4936 14.79328824005963
CSSWE-D
1 38761U 0        12298.31357253  .00006476  00000-0  59084-3 0 00427
2 38761 064.6726 276.8243 0219448 278.1604 079.4686 14.79327712005969
CXBN-E
1 38762U 0        12298.44743389  .00007454  00000-0  67625-3 0 00428
2 38762 064.6738 276.4052 0219308 277.9029 079.7277 14.79404992005987
OBJECT F
1 38763U 0        12298.44715918  .00006264  00000-0  57074-3 0 00409
2 38763 064.6724 276.4017 0219671 278.1644 079.4619 14.79379828005822
CINEMA-G
1 38764U 0        12298.44683446  .00006525  00000-0  59401-3 0 00406
2 38764 064.6723 276.3967 0219406 278.2084 079.4214 14.79401011005988
CP5
1 38765U 0        12298.47334000  .00008350  00000-0  75521-3 0 00419
2 38765 064.6726 276.3011 0218766 277.9598 226.6709 14.79487188005980
RAIKO
1 38852U 98067CN  12299.87907583  .00047878  00000-0  75680-3 0   192
2 38852 051.6464 191.9836 0018826 198.0064 162.0258 15.52789701  3231
FITSAT 1
1 38853U 98067CP  12299.87727956  .00057221  00000-0  89490-3 0   217
2 38853 051.6485 191.9704 0014645 207.0984 152.9262 15.53088154  3289
TechEdSat
1 38854U 98067CQ  12298.90849351  .00075543  00000-0  11567-2 0 00299
2 38854 051.6464 196.7461 0014672 204.5586 155.4735 15.53553041003140
F 1
1 38855U 98067CR  12298.97345513  .00073109  00000-0  11236-2 0 00286
2 38855 051.6468 196.4289 0013882 205.1695 154.8620 15.53477922003048
WeWish
1 38856U 98067CS  12298.96806591  .00105875  00000-0  15562-2 0 00309
2 38856 051.6491 196.3990 0019441 195.0921 164.9494 15.54427406003043
/EX




More information about the Keps mailing list